• In Hungary
  • List of Countries
  • For 7 days
  • Water Temperature
  • Satellite Maps
  • Weather Map
  • News
  • Weather Widgets
  • user-avatar
    Login

    Hourly Weather Iokogama

    Today, 13 November, Tuesday

    Time Temperature Precipitation Wind Pressure Humidity
    00:00 +18°C° 0.1 mm 2 mps 755 mmHg 79%
    01:00 +18°C° 0.4 mm 2 mps 755 mmHg 80%
    02:00 +17°C° 0.4 mm 2 mps 755 mmHg 81%
    03:00 +17°C° 0 mm 3 mps 755 mmHg 82%
    04:00 +17°C° 0.1 mm 3 mps 755 mmHg 81%
    05:00 +17°C° 0.1 mm 3 mps 755 mmHg 80%
    06:00 +17°C° 0.1 mm 3 mps 755 mmHg 80%
    07:00 +17°C° 0 mm 4 mps 756 mmHg 76%
    08:00 +18°C° 0 mm 4 mps 756 mmHg 73%
    09:00 +18°C° 0 mm 4 mps 756 mmHg 70%
    10:00 +18°C° 0 mm 4 mps 756 mmHg 69%
    11:00 +19°C° 0 mm 4 mps 755 mmHg 67%
    12:00 +19°C° 0 mm 4 mps 755 mmHg 65%
    13:00 +19°C° 0 mm 5 mps 755 mmHg 66%
    14:00 +19°C° 0 mm 5 mps 755 mmHg 67%
    15:00 +17°C° 0 mm 5 mps 754 mmHg 68%
    16:00 +17°C° 0 mm 5 mps 755 mmHg 69%
    17:00 +17°C° 0 mm 5 mps 755 mmHg 70%
    18:00 +16°C° 0 mm 5 mps 755 mmHg 72%
    19:00 +16°C° 0.2 mm 5 mps 755 mmHg 73%
    20:00 +16°C° 0.2 mm 5 mps 755 mmHg 74%
    21:00 +15°C° 0.2 mm 6 mps 755 mmHg 75%
    22:00 +15°C° 1 mm 6 mps 755 mmHg 74%
    23:00 +15°C° 1 mm 6 mps 755 mmHg 74%

    Tomorrow, 14 November, Wednesday

    Time Temperature Precipitation Wind Pressure Humidity
    00:00 +15°C° 1 mm 6 mps 755 mmHg 74%
    01:00 +14°C° 0.9 mm 6 mps 755 mmHg 73%
    02:00 +14°C° 0.9 mm 6 mps 755 mmHg 72%
    03:00 +14°C° 0.9 mm 6 mps 755 mmHg 71%
    04:00 +13°C° 0.3 mm 6 mps 755 mmHg 70%
    05:00 +13°C° 0.3 mm 6 mps 755 mmHg 68%
    06:00 +13°C° 0.3 mm 6 mps 756 mmHg 67%
    07:00 +14°C° 0 mm 6 mps 756 mmHg 63%
    08:00 +14°C° 0 mm 6 mps 757 mmHg 59%
    09:00 +15°C° 0 mm 6 mps 757 mmHg 55%
    10:00 +15°C° 0 mm 6 mps 757 mmHg 53%
    11:00 +16°C° 0 mm 5 mps 757 mmHg 51%
    12:00 +16°C° 0 mm 5 mps 757 mmHg 49%
    13:00 +17°C° 0 mm 4 mps 757 mmHg 49%
    14:00 +17°C° 0 mm 4 mps 757 mmHg 50%
    15:00 +17°C° 0 mm 4 mps 757 mmHg 50%
    16:00 +17°C° 0 mm 4 mps 757 mmHg 50%
    17:00 +15°C° 0 mm 4 mps 758 mmHg 51%
    18:00 +16°C° 0 mm 3 mps 758 mmHg 51%
    19:00 +15°C° 0 mm 4 mps 759 mmHg 52%
    20:00 +14°C° 0 mm 4 mps 759 mmHg 52%
    21:00 +14°C° 0 mm 4 mps 760 mmHg 52%
    22:00 +13°C° 0 mm 4 mps 760 mmHg 53%
    23:00 +13°C° 0 mm 4 mps 760 mmHg 55%

    Day after tomorrow, 15 November, Thursday

    Time Temperature Precipitation Wind Pressure Humidity
    00:00 +12°C° 0 mm 4 mps 760 mmHg 56%
    01:00 +12°C° 0 mm 4 mps 760 mmHg 56%
    02:00 +12°C° 0 mm 4 mps 760 mmHg 56%
    03:00 +12°C° 0 mm 4 mps 761 mmHg 56%
    04:00 +11°C° 0 mm 4 mps 761 mmHg 56%
    05:00 +11°C° 0 mm 4 mps 761 mmHg 57%
    06:00 +11°C° 0 mm 4 mps 762 mmHg 57%
    07:00 +12°C° 0 mm 4 mps 762 mmHg 54%
    08:00 +14°C° 0 mm 3 mps 762 mmHg 51%
    09:00 +16°C° 0 mm 3 mps 763 mmHg 49%
    10:00 +17°C° 0 mm 3 mps 762 mmHg 46%
    11:00 +18°C° 0 mm 3 mps 762 mmHg 43%
    12:00 +19°C° 0 mm 3 mps 762 mmHg 40%
    13:00 +18°C° 0 mm 2 mps 762 mmHg 40%
    14:00 +18°C° 0 mm 2 mps 762 mmHg 40%
    15:00 +18°C° 0 mm 2 mps 762 mmHg 40%
    16:00 +17°C° 0 mm 2 mps 762 mmHg 43%
    17:00 +16°C° 0 mm 2 mps 763 mmHg 47%
    18:00 +15°C° 0 mm 2 mps 763 mmHg 50%
    19:00 +15°C° 0 mm 2 mps 764 mmHg 52%
    20:00 +14°C° 0 mm 2 mps 764 mmHg 54%
    21:00 +14°C° 0 mm 2 mps 764 mmHg 55%
    22:00 +14°C° 0 mm 2 mps 764 mmHg 57%
    23:00 +14°C° 0 mm 2 mps 764 mmHg 59%

    16 November, Friday

    Time Temperature Precipitation Wind Pressure Humidity
    00:00 +13°C° 0 mm 2 mps 764 mmHg 61%
    01:00 +13°C° 0 mm 1 mps 764 mmHg 62%
    02:00 +13°C° 0 mm 1 mps 764 mmHg 64%
    03:00 +13°C° 0 mm 1 mps 764 mmHg 66%
    04:00 +13°C° 0 mm 1 mps 764 mmHg 67%
    05:00 +13°C° 0 mm 1 mps 764 mmHg 69%
    06:00 +12°C° 0 mm 1 mps 764 mmHg 71%
    07:00 +14°C° 0 mm 1 mps 764 mmHg 66%
    08:00 +15°C° 0 mm 1 mps 764 mmHg 62%
    09:00 +16°C° 0 mm 2 mps 764 mmHg 57%
    10:00 +17°C° 0 mm 2 mps 764 mmHg 55%
    11:00 +18°C° 0 mm 3 mps 763 mmHg 53%
    12:00 +18°C° 0 mm 4 mps 762 mmHg 50%
    13:00 +19°C° 0 mm 4 mps 762 mmHg 51%
    14:00 +19°C° 0 mm 4 mps 762 mmHg 51%
    15:00 +19°C° 0 mm 4 mps 761 mmHg 51%
    16:00 +18°C° 0 mm 4 mps 761 mmHg 55%
    17:00 +17°C° 0 mm 4 mps 761 mmHg 59%
    18:00 +15°C° 0 mm 4 mps 761 mmHg 63%
    19:00 +15°C° 0 mm 4 mps 761 mmHg 65%
    20:00 +15°C° 0 mm 4 mps 761 mmHg 67%
    21:00 +14°C° 0 mm 4 mps 761 mmHg 69%
    22:00 +14°C° 0 mm 4 mps 761 mmHg 70%
    23:00 +14°C° 0 mm 4 mps 761 mmHg 70%

    17 November, Saturday

    Time Temperature Precipitation Wind Pressure Humidity
    00:00 +14°C° 0 mm 4 mps 761 mmHg 71%
    01:00 +14°C° 0 mm 4 mps 760 mmHg 69%
    02:00 +14°C° 0 mm 4 mps 760 mmHg 67%
    03:00 +13°C° 0 mm 3 mps 760 mmHg 66%
    04:00 +13°C° 0 mm 3 mps 760 mmHg 64%
    05:00 +14°C° 0 mm 3 mps 760 mmHg 63%
    06:00 +15°C° 0 mm 2 mps 760 mmHg 62%
    07:00 +15°C° 0.2 mm 2 mps 760 mmHg 62%
    08:00 +15°C° 0.2 mm 2 mps 760 mmHg 62%
    09:00 +15°C° 0.2 mm 1 mps 760 mmHg 62%
    10:00 +17°C° 0.1 mm 2 mps 760 mmHg 56%
    11:00 +18°C° 0.1 mm 2 mps 759 mmHg 51%
    12:00 +19°C° 0.1 mm 2 mps 759 mmHg 46%
    13:00 +19°C° 0 mm 2 mps 758 mmHg 44%
    14:00 +19°C° 0 mm 3 mps 758 mmHg 43%
    15:00 +19°C° 0 mm 3 mps 758 mmHg 41%
    16:00 +18°C° 0 mm 3 mps 758 mmHg 44%
    17:00 +17°C° 0 mm 3 mps 759 mmHg 47%
    18:00 +15°C° 0 mm 4 mps 759 mmHg 50%
    19:00 +15°C° 0 mm 4 mps 759 mmHg 56%
    20:00 +16°C° 0 mm 3 mps 759 mmHg 61%
    21:00 +14°C° 0 mm 3 mps 760 mmHg 66%
    22:00 +14°C° 0 mm 4 mps 760 mmHg 68%
    23:00 +14°C° 0 mm 4 mps 760 mmHg 71%

    18 November, Sunday

    Time Temperature Precipitation Wind Pressure Humidity
    00:00 +13°C° 0 mm 4 mps 760 mmHg 73%
    01:00 +13°C° 0 mm 4 mps 760 mmHg 74%
    02:00 +13°C° 0 mm 4 mps 760 mmHg 75%
    03:00 +12°C° 0 mm 4 mps 760 mmHg 76%
    04:00 +12°C° 0 mm 4 mps 760 mmHg 76%
    05:00 +12°C° 0 mm 4 mps 760 mmHg 77%
    06:00 +12°C° 0 mm 4 mps 760 mmHg 78%
    07:00 +13°C° 0 mm 4 mps 761 mmHg 73%
    08:00 +14°C° 0 mm 4 mps 761 mmHg 69%
    09:00 +15°C° 0 mm 4 mps 761 mmHg 65%
    10:00 +17°C° 0 mm 4 mps 761 mmHg 62%
    11:00 +17°C° 0 mm 3 mps 760 mmHg 59%
    12:00 +18°C° 0 mm 3 mps 760 mmHg 56%
    13:00 +18°C° 0 mm 3 mps 760 mmHg 57%
    14:00 +18°C° 0 mm 3 mps 759 mmHg 59%
    15:00 +18°C° 0 mm 3 mps 759 mmHg 60%
    16:00 +17°C° 0 mm 3 mps 760 mmHg 65%
    17:00 +17°C° 0 mm 3 mps 760 mmHg 70%
    18:00 +16°C° 0 mm 3 mps 760 mmHg 74%
    19:00 +16°C° 0.1 mm 2 mps 760 mmHg 77%
    20:00 +16°C° 0.1 mm 2 mps 760 mmHg 80%
    21:00 +15°C° 0.1 mm 2 mps 761 mmHg 82%
    22:00 +15°C° 0.2 mm 2 mps 760 mmHg 83%
    23:00 +15°C° 0.2 mm 2 mps 760 mmHg 83%
    Show more